[[[{"header":{"parameterUnit":"kt","parameterCategory":2,"dx":1,"dy":1,"la1":30.253999710083008,"la2":30.299108505249023,"lo1":-89.0895004272461,"lo2":-89.04439544677734,"nx":28,"ny":28,"refTime":"2022-10-26T21:00:00:Z","depth":"0","parameterNumber":2,"parameterNumberName":"U-component_of_CURRENTS"},"data":[-0.2663,-0.2603,-0.2598,-0.2496,-0.2488,-0.2388,-0.2372,-0.2383,-0.2472,-0.2595,-0.2755,-0.2948,-0.2968,-0.299,-0.2683,-0.2465,-0.2373,-0.2267,-0.2259,-0.2474,-0.2507,-0.2539,-0.2539,-0.2226,-0.2226,-0.1997,-0.1996,-0.1995,-0.2733,-0.2725,-0.2721,-0.2722,-0.2691,-0.2757,-0.2805,-0.2771,-0.2803,-0.2993,-0.307,-0.3165,-0.3,-0.2906,-0.2689,-0.2511,-0.2417,-0.2417,-0.2482,-0.2417,-0.2602,-0.2593,-0.2286,-0.2286,-0.2287,-0.2287,-0.2287,-0.2287,-0.2856,-0.2845,-0.2863,-0.2869,-0.2903,-0.2921,-0.2901,-0.301,-0.308,-0.3185,-0.3329,-0.3375,-0.3324,-0.3113,-0.2979,-0.2747,-0.2826,-0.2697,-0.276,-0.2794,-0.2692,-0.2841,-0.264,-0.2641,-0.2642,-0.2644,-0.2645,0,-0.2939,-0.2962,-0.2986,-0.3003,-0.303,-0.3072,-0.3133,-0.3178,-0.3325,-0.3407,-0.3499,-0.3538,-0.3488,-0.3379,-0.3218,-0.3128,-0.3136,-0.3105,-0.3111,-0.3043,-0.3003,-0.2904,-0.3196,-0.3046,-0.305,-0.3052,-0.3054,-0.3056,-0.3021,-0.3027,-0.3103,-0.3111,-0.3147,-0.3191,-0.3224,-0.335,-0.3403,-0.3565,-0.3592,-0.3645,-0.367,-0.3589,-0.3509,-0.339,-0.3406,-0.3201,-0.3247,-0.3182,-0.3222,-0.3251,-0.3173,-0.3096,-0.3091,-0.3087,-0.3084,0,-0.3057,-0.3116,-0.3148,-0.3233,-0.3257,-0.3273,-0.3377,-0.3412,-0.3517,-0.3596,-0.3625,-0.3762,-0.3764,-0.3784,-0.3775,-0.3723,-0.359,-0.3588,-0.3456,-0.3422,-0.3241,-0.3287,-0.316,-0.3052,-0.3367,-0.3363,-0.336,0,-0.3142,-0.3156,-0.3244,-0.3264,-0.3289,-0.3381,-0.3422,-0.3491,-0.3592,-0.3649,-0.3754,-0.3806,-0.3886,-0.3892,-0.3872,-0.3774,-0.385,-0.371,-0.369,-0.3623,-0.3603,-0.3581,-0.3625,-0.3874,-0.3875,-0.3876,-0.3877,0,-0.32,-0.3265,-0.3284,-0.3319,-0.3431,-0.345,-0.35,-0.3602,-0.365,-0.3739,-0.3788,-0.3854,-0.3891,-0.3893,-0.3896,-0.3921,-0.3877,-0.392,-0.3741,-0.3729,-0.3641,-0.362,-0.3536,-0.3879,-0.3879,-0.388,-0.388,0,-0.3293,-0.333,-0.3351,-0.3452,-0.3473,-0.3496,-0.359,-0.3624,-0.3723,-0.3763,-0.3828,-0.388,-0.3929,-0.394,-0.3952,-0.3971,-0.3928,-0.3927,-0.3923,-0.3813,-0.38,-0.3626,-0.3507,-0.3488,-0.3835,-0.3836,-0.3836,0,-0.3358,-0.3385,-0.3458,-0.3482,-0.352,-0.3621,-0.3644,-0.3714,-0.3771,-0.382,-0.3874,-0.39,-0.3919,-0.3937,-0.3961,-0.3983,-0.3953,-0.399,-0.3937,-0.3934,-0.3858,-0.3773,-0.3676,-0.3528,-0.3844,-0.3843,-0.3842,0,-0.3426,-0.3533,-0.3531,-0.3584,-0.3679,-0.3702,-0.3718,-0.3794,-0.3839,-0.3852,-0.3905,-0.3892,-0.3938,-0.3941,-0.3966,-0.3986,-0.3957,-0.398,-0.3982,-0.3948,-0.3924,-0.3796,-0.3778,-0.3997,-0.3997,-0.3998,-0.3848,0,-0.3632,-0.3633,-0.3607,-0.3695,-0.3724,-0.3728,-0.3828,-0.3837,-0.3886,-0.395,-0.3949,-0.3953,-0.3976,-0.3961,-0.3976,-0.398,-0.3941,-0.3979,-0.403,-0.399,-0.3918,-0.3914,-0.3973,-0.3973,-0.3974,-0.3974,0,0,-0.3724,-0.3727,-0.3789,-0.381,-0.3848,-0.3952,-0.3967,-0.3994,-0.404,-0.4062,-0.4057,-0.4056,-0.4048,-0.4058,-0.4031,-0.4003,-0.3977,-0.4019,-0.3988,-0.3989,-0.399,-0.3923,-0.3918,-0.3974,-0.3974,-0.3974,-0.3974,0,-0.3832,-0.3828,-0.3806,-0.3858,-0.3932,-0.3994,-0.4004,-0.4084,-0.4103,-0.4091,-0.413,-0.4124,-0.4065,-0.4084,-0.4086,-0.4009,-0.4014,-0.397,-0.3971,-0.3989,-0.399,-0.3991,-0.3925,-0.392,-0.3975,-0.3975,-0.3975,0,-0.3977,-0.4022,-0.4004,-0.4044,-0.4083,-0.4113,-0.4199,-0.4198,-0.4222,-0.426,-0.423,-0.4222,-0.4211,-0.4153,-0.4123,-0.4143,-0.4056,-0.4072,-0.4069,-0.4083,-0.4104,-0.4104,-0.4103,-0.412,-0.4121,-0.4122,0,0,-0.4069,-0.4047,-0.4147,-0.4077,-0.4102,-0.4196,-0.4207,-0.4254,-0.4275,-0.4273,-0.4276,-0.4258,-0.4237,-0.4217,-0.4174,-0.412,-0.4121,-0.4093,-0.4086,-0.4081,-0.4092,-0.4111,-0.4109,-0.4125,-0.4125,-0.4125,0,0,-0.4111,-0.4201,-0.4247,-0.4172,-0.4228,-0.4305,-0.4263,-0.4338,-0.4323,-0.4314,-0.4346,-0.4338,-0.4274,-0.4259,-0.4299,-0.4197,-0.422,-0.4211,-0.4228,-0.4219,-0.4212,-0.4241,-0.4333,0,0,0,0,0,-0.4292,-0.42,-0.4243,-0.4244,-0.4269,-0.4295,-0.43,-0.4343,-0.4394,-0.4363,-0.4365,-0.4383,-0.4273,-0.4309,-0.4299,-0.4277,-0.4164,-0.4157,-0.4151,-0.4157,-0.4148,-0.414,0,0,0,0,0,0,-0.4293,-0.4293,-0.4247,-0.4318,-0.4326,-0.4296,-0.4363,-0.4373,-0.4395,-0.44,-0.4386,-0.4382,-0.438,-0.4314,-0.4306,-0.4284,-0.4336,-0.4161,-0.4155,-0.415,-0.4154,-0.4146,-0.414,0,0,0,0,0,-0.4295,-0.4295,-0.4312,-0.432,-0.4326,-0.4382,-0.4363,-0.4372,-0.4382,-0.4386,-0.4385,-0.4415,-0.4379,-0.4371,-0.4309,-0.4288,-0.4342,-0.4339,-0.4158,-0.4153,-0.4149,-0.415,0,0,0,0,0,0,-0.4296,-0.43,-0.4315,-0.4321,-0.4329,-0.4383,-0.4388,-0.4371,-0.4365,-0.4368,-0.4413,-0.4416,-0.4379,-0.4373,-0.4366,-0.429,-0.4347,-0.4343,-0.4341,-0.4154,-0.415,-0.4147,0,0,0,0,0,0,-0.4301,-0.4303,-0.4318,-0.4326,-0.4333,-0.4384,-0.4388,-0.435,-0.4361,-0.4389,-0.4395,-0.4414,-0.4368,-0.4373,-0.4368,-0.431,-0.435,-0.4347,-0.4345,-0.4344,-0.4151,-0.4148,0,0,0,0,0,0,-0.4304,-0.4306,-0.4325,-0.433,-0.4336,-0.4397,-0.4349,-0.4352,-0.4426,-0.4386,-0.4429,-0.443,-0.4366,-0.4363,-0.437,-0.4314,-0.4311,-0.435,-0.4348,-0.4347,-0.4346,0,0,0,0,0,0,0,-0.4306,-0.4272,-0.429,-0.4332,-0.4338,-0.4376,-0.4376,-0.4377,-0.4426,-0.4427,-0.4428,-0.4429,-0.4368,-0.4365,-0.4361,-0.4317,0,0,-0.4351,-0.4349,0,0,0,0,0,0,0,0,-0.4274,-0.4272,-0.429,-0.4292,-0.4293,-0.4376,-0.4376,-0.4377,-0.4426,-0.4427,-0.4428,-0.4429,-0.4367,-0.4365,-0.4362,0,0,0,0,0,0,0,0,0,0,0,0,0,0,0,-0.429,-0.4292,0,-0.4376,-0.4376,-0.4377,-0.4426,-0.4427,-0.4428,-0.4429,-0.4367,-0.4364,-0.4362,0,0,0,0,0,0,0,0,0,0,0,0,0,0,0,0,0,0,0,0,0,0,0,0,0,0,0,0,0,0,0,0,0,0,0,0,0,0,0,0,0,0,0,0,0,0,0,0,0,0,0,0,0,0,0,0,0,0,0,0,0,0,0,0,0,0,0,0,0]}],[{"header":{"parameterUnit":"kt","parameterCategory":2,"dx":1,"dy":1,"la1":30.253999710083008,"la2":30.299108505249023,"lo1":-89.0895004272461,"lo2":-89.04439544677734,"nx":28,"ny":28,"refTime":"2022-10-26T21:00:00:Z","depth":"0","parameterNumber":3,"parameterNumberName":"V-component_of_CURRENTS"},"data":[-0.1279,-0.137,-0.1431,-0.1607,-0.1695,-0.1808,-0.186,-0.1932,-0.1919,-0.1817,-0.1596,-0.1403,-0.0475,0.0989,0.1798,0.1861,0.2185,0.2141,0.233,0.1925,0.1881,0.184,0.1851,0.2262,0.2264,0.2918,0.2924,0.2929,-0.1268,-0.1341,-0.144,-0.1562,-0.1665,-0.1688,-0.1784,-0.1831,-0.1882,-0.1839,-0.1754,-0.1189,-0.0559,0.0057,0.0892,0.1244,0.135,0.1408,0.1564,0.1639,0.1022,0.1002,0.124,0.124,0.1239,0.1239,0.1239,0.1239,-0.1252,-0.1309,-0.139,-0.1481,-0.1565,-0.1659,-0.1712,-0.1757,-0.1788,-0.1761,-0.1614,-0.1455,-0.0818,-0.0195,0.0087,0.0663,0.0642,0.0847,0.0955,0.1028,0.1138,0.0392,0.057,0.057,0.057,0.057,0.0569,0,-0.1226,-0.1258,-0.1322,-0.142,-0.1482,-0.1557,-0.16,-0.1629,-0.1597,-0.1575,-0.1498,-0.1387,-0.097,-0.0581,-0.0123,0.0096,0.0513,0.0372,0.0634,0.08,0.0884,0.1032,0.0283,0.0434,0.0433,0.0432,0.0432,0.0431,-0.1181,-0.1223,-0.1311,-0.1358,-0.1385,-0.1435,-0.1472,-0.1455,-0.1467,-0.1378,-0.1371,-0.1179,-0.1048,-0.0604,-0.026,0.0093,0.0306,0.0338,0.0341,0.056,0.0709,0.0794,0.0888,0.042,0.0421,0.0423,0.0424,0,-0.1153,-0.1183,-0.1257,-0.1306,-0.1322,-0.136,-0.1387,-0.1404,-0.1348,-0.1324,-0.1301,-0.1141,-0.0931,-0.068,-0.0363,-0.0178,0.0223,0.017,0.0134,0.0179,0.0528,0.0624,0.0975,0.111,0.0368,0.0369,0.037,0,-0.1112,-0.1159,-0.1202,-0.1235,-0.1295,-0.128,-0.1313,-0.1285,-0.1239,-0.1227,-0.1101,-0.1052,-0.08,-0.0627,-0.0423,-0.0156,-0.0149,0.0045,0.0098,0.0093,0.0093,0.0375,0.0482,0.0077,0.0075,0.0074,0.0073,0,-0.1059,-0.1113,-0.1172,-0.1184,-0.1209,-0.1219,-0.122,-0.1166,-0.1152,-0.1066,-0.1042,-0.0899,-0.0817,-0.0627,-0.0406,-0.0405,-0.0142,-0.0108,0.0045,0.0047,0.0136,0.0142,0.0432,0.0071,0.0071,0.007,0.007,0,-0.1013,-0.1048,-0.111,-0.1149,-0.1155,-0.1166,-0.1152,-0.1135,-0.1051,-0.1005,-0.0924,-0.0837,-0.0724,-0.0661,-0.0427,-0.0483,-0.0335,-0.022,-0.0209,-0.0147,-0.0102,0.0017,0.0077,0.0324,-0.0084,-0.0086,-0.0088,0,-0.0973,-0.1028,-0.1019,-0.1064,-0.109,-0.1047,-0.104,-0.0998,-0.0944,-0.0899,-0.0789,-0.073,-0.0659,-0.0625,-0.0542,-0.0399,-0.0318,-0.0403,-0.0145,-0.0138,-0.0164,-0.0125,-0.0113,0.0044,-0.0111,-0.0109,-0.0107,0,-0.0933,-0.0956,-0.096,-0.0992,-0.0971,-0.0962,-0.094,-0.0911,-0.0908,-0.0819,-0.0801,-0.068,-0.0629,-0.0572,-0.0496,-0.0423,-0.0352,-0.0357,-0.035,-0.0324,-0.0167,-0.0157,-0.014,-0.0306,-0.0304,-0.0303,-0.0125,0,-0.0958,-0.0951,-0.0943,-0.0956,-0.0935,-0.0927,-0.0893,-0.0856,-0.0826,-0.0792,-0.071,-0.0607,-0.0526,-0.0486,-0.044,-0.0373,-0.0332,-0.0298,-0.0285,-0.0274,-0.0193,-0.0179,-0.0313,-0.0311,-0.031,-0.0308,0,0,-0.0945,-0.0937,-0.0891,-0.0901,-0.09,-0.0853,-0.0869,-0.0825,-0.0758,-0.0735,-0.0712,-0.0562,-0.0486,-0.0418,-0.041,-0.0352,-0.0289,-0.0356,-0.0273,-0.027,-0.0266,-0.0191,-0.018,-0.0305,-0.0304,-0.0304,-0.0303,0,-0.0965,-0.0905,-0.0904,-0.0888,-0.0865,-0.0845,-0.0843,-0.0799,-0.0771,-0.0717,-0.0667,-0.0598,-0.0476,-0.0422,-0.0377,-0.0336,-0.0267,-0.0297,-0.0345,-0.0261,-0.0261,-0.0259,-0.0186,-0.0177,-0.0299,-0.0299,-0.0299,0,-0.0983,-0.0962,-0.0941,-0.0887,-0.0863,-0.086,-0.0832,-0.0796,-0.0791,-0.071,-0.0663,-0.059,-0.0492,-0.0419,-0.0375,-0.0364,-0.0244,-0.0279,-0.0285,-0.0287,-0.0198,-0.0197,-0.0196,-0.0217,-0.0217,-0.0218,0,0,-0.1007,-0.0978,-0.0942,-0.0889,-0.0879,-0.0847,-0.0822,-0.0806,-0.0753,-0.0727,-0.0664,-0.0584,-0.0512,-0.0467,-0.0383,-0.0306,-0.0245,-0.0278,-0.0281,-0.0285,-0.029,-0.0203,-0.0201,-0.022,-0.022,-0.022,0,0,-0.1017,-0.0983,-0.0975,-0.091,-0.0881,-0.0834,-0.0805,-0.0796,-0.073,-0.0726,-0.0658,-0.0634,-0.0556,-0.0485,-0.0523,-0.0388,-0.036,-0.035,-0.0466,-0.0469,-0.0472,-0.0507,-0.0488,0,0,0,0,0,-0.1041,-0.0993,-0.0987,-0.0973,-0.0886,-0.084,-0.0828,-0.0795,-0.0801,-0.0776,-0.0717,-0.0684,-0.0488,-0.052,-0.0494,-0.0487,-0.0247,-0.0242,-0.0237,-0.0365,-0.0369,-0.0373,0,0,0,0,0,0,-0.1036,-0.1018,-0.0989,-0.0941,-0.0922,-0.084,-0.084,-0.0829,-0.0802,-0.08,-0.0699,-0.0681,-0.0628,-0.0528,-0.0506,-0.0502,-0.0495,-0.0245,-0.0241,-0.0237,-0.0366,-0.037,-0.0373,0,0,0,0,0,-0.1031,-0.1017,-0.0885,-0.0941,-0.0925,-0.0877,-0.084,-0.0831,-0.0803,-0.072,-0.0703,-0.0784,-0.0629,-0.0606,-0.0515,-0.0514,-0.051,-0.0502,-0.0242,-0.0239,-0.0236,-0.0368,0,0,0,0,0,0,-0.1028,-0.0999,-0.0881,-0.0875,-0.0954,-0.088,-0.0866,-0.0834,-0.0722,-0.0709,-0.0801,-0.08,-0.0629,-0.0611,-0.0593,-0.0523,-0.0523,-0.0514,-0.0509,-0.024,-0.0237,-0.0235,0,0,0,0,0,0,-0.1007,-0.0994,-0.0878,-0.0896,-0.0891,-0.0883,-0.0871,-0.0784,-0.0719,-0.0807,-0.0805,-0.0801,-0.0644,-0.0614,-0.06,-0.0466,-0.0532,-0.0524,-0.0519,-0.0515,-0.0238,-0.0236,0,0,0,0,0,0,-0.1001,-0.099,-0.0896,-0.0893,-0.0889,-0.0815,-0.0803,-0.0704,-0.0772,-0.0811,-0.0774,-0.0775,-0.0647,-0.0633,-0.0606,-0.0478,-0.0469,-0.0532,-0.0526,-0.0523,-0.052,0,0,0,0,0,0,0,-0.0996,-0.1079,-0.0924,-0.0891,-0.0887,-0.0822,-0.082,-0.0817,-0.0772,-0.0773,-0.0774,-0.0775,-0.0577,-0.0568,-0.056,-0.0487,0,0,-0.0533,-0.0529,0,0,0,0,0,0,0,0,-0.1084,-0.108,-0.0923,-0.0923,-0.0922,-0.0822,-0.082,-0.0818,-0.0772,-0.0773,-0.0774,-0.0775,-0.0575,-0.0568,-0.0561,0,0,0,0,0,0,0,0,0,0,0,0,0,0,0,-0.0923,-0.0923,0,-0.0821,-0.082,-0.0818,-0.0773,-0.0773,-0.0774,-0.0774,-0.0573,-0.0567,-0.0561,0,0,0,0,0,0,0,0,0,0,0,0,0,0,0,0,0,0,0,0,0,0,0,0,0,0,0,0,0,0,0,0,0,0,0,0,0,0,0,0,0,0,0,0,0,0,0,0,0,0,0,0,0,0,0,0,0,0,0,0,0,0,0,0,0,0,0,0,0]}]],[[{"header":{"parameterUnit":"kt","parameterCategory":2,"dx":1,"dy":1,"la1":30.253999710083008,"la2":30.299108505249023,"lo1":-89.0895004272461,"lo2":-89.04439544677734,"nx":28,"ny":28,"refTime":"2022-10-26T21:00:00:Z","depth":"2","parameterNumber":2,"parameterNumberName":"U-component_of_CURRENTS"},"data":[-0.2524,-0.2463,-0.2452,-0.2344,-0.2333,-0.2229,-0.2205,-0.219,-0.2243,-0.2244,-0.2285,-0.2519,-0.2506,-0.2106,-0.1924,-0.1694,-0.1815,-0.1578,-0.2203,-0.2315,-0.2359,-0.2416,-0.2393,0,0,0,0,0,-0.2591,-0.2581,-0.2572,-0.2565,-0.253,-0.2594,-0.2623,-0.2577,-0.2586,-0.2728,-0.2783,-0.2573,-0.2477,-0.2418,-0.2104,-0.1995,-0.1978,-0.1878,-0.1917,-0.197,-0.2016,-0.1962,-0.1501,-0.1498,-0.1495,-0.1493,0,0,-0.2707,-0.2694,-0.2709,-0.2712,-0.2742,-0.2749,-0.2723,-0.2814,-0.2866,-0.294,-0.3075,-0.3072,-0.3045,-0.2786,-0.2595,-0.242,-0.263,-0.2536,-0.2557,-0.2583,-0.2554,-0.2481,-0.2252,-0.2255,-0.2257,-0.2259,-0.2261,0,-0.2784,-0.2807,-0.2827,-0.2841,-0.2866,-0.2901,-0.2955,-0.2992,-0.3124,-0.3192,-0.3264,-0.3298,-0.3257,-0.3109,-0.298,-0.2892,-0.2976,-0.2841,-0.3244,-0.2884,-0.2814,-0.2811,-0.2838,-0.2658,-0.2663,-0.2667,-0.267,-0.2672,-0.2862,-0.2868,-0.2938,-0.2944,-0.2978,-0.3021,-0.3052,-0.3171,-0.3214,-0.3359,-0.3377,-0.3432,-0.3453,-0.3395,-0.332,-0.3224,-0.3342,-0.2964,-0.2985,-0.3307,-0.3302,-0.3312,-0.3322,-0.2727,-0.272,-0.2714,-0.2709,0,-0.2896,-0.2951,-0.2979,-0.3059,-0.3083,-0.3098,-0.3196,-0.3228,-0.3329,-0.3397,-0.3424,-0.3553,-0.3559,-0.3591,-0.3594,-0.3549,-0.35,-0.3437,-0.3209,-0.3166,-0.3346,-0.335,-0.3243,-0.3238,-0.3233,-0.3229,-0.3226,0,-0.2974,-0.2988,-0.3067,-0.3085,-0.3111,-0.3197,-0.3239,-0.3305,-0.34,-0.345,-0.3554,-0.3598,-0.3683,-0.3693,-0.3684,-0.3599,-0.3674,-0.3543,-0.3525,-0.3369,-0.3343,-0.371,-0.3712,-0.3703,-0.3704,-0.3705,-0.3706,0,-0.3023,-0.3083,-0.3103,-0.3136,-0.3238,-0.3259,-0.3307,-0.3406,-0.3453,-0.3541,-0.3586,-0.3653,-0.3687,-0.3696,-0.3706,-0.3728,-0.3696,-0.3735,-0.3571,-0.356,-0.3383,-0.3355,-0.3707,-0.3707,-0.3707,-0.3708,-0.3708,0,-0.3105,-0.3136,-0.316,-0.325,-0.3268,-0.3295,-0.3383,-0.3424,-0.3521,-0.3564,-0.3626,-0.3677,-0.3724,-0.3736,-0.3754,-0.3768,-0.3737,-0.3739,-0.3735,-0.3618,-0.3607,-0.3342,-0.3236,-0.3665,-0.3665,-0.3666,-0.3666,0,-0.3157,-0.3183,-0.3244,-0.3274,-0.3306,-0.3395,-0.3429,-0.3497,-0.3555,-0.3608,-0.3661,-0.3696,-0.3716,-0.3734,-0.3758,-0.3779,-0.3758,-0.3786,-0.3743,-0.374,-0.3639,-0.3588,-0.3389,-0.3258,-0.3672,-0.3671,-0.3671,0,-0.3208,-0.3298,-0.3297,-0.3334,-0.3419,-0.3444,-0.3478,-0.3546,-0.3583,-0.3624,-0.3668,-0.369,-0.3726,-0.3735,-0.3759,-0.3777,-0.376,-0.3772,-0.3773,-0.3729,-0.3738,-0.3609,-0.3592,-0.3794,-0.3795,-0.3795,-0.3675,0,-0.336,-0.3363,-0.3353,-0.3412,-0.3443,-0.346,-0.3538,-0.3566,-0.361,-0.3659,-0.3689,-0.3716,-0.3747,-0.3744,-0.3757,-0.377,-0.3737,-0.3769,-0.3787,-0.3778,-0.3719,-0.3716,-0.3757,-0.3757,-0.3757,-0.3757,0,0,-0.3417,-0.3416,-0.3462,-0.348,-0.3509,-0.3585,-0.3601,-0.3632,-0.369,-0.3713,-0.3716,-0.3755,-0.3766,-0.3788,-0.3775,-0.3775,-0.3754,-0.377,-0.3773,-0.3775,-0.3776,-0.3722,-0.3719,-0.3757,-0.3757,-0.3758,-0.3758,0,-0.3488,-0.3483,-0.3467,-0.351,-0.3561,-0.3603,-0.3617,-0.3679,-0.3698,-0.3725,-0.3748,-0.3769,-0.3769,-0.3784,-0.379,-0.3776,-0.3763,-0.3754,-0.3755,-0.3773,-0.3775,-0.3776,-0.3723,-0.372,-0.3758,-0.3758,-0.3758,0,-0.3575,-0.3598,-0.3585,-0.3612,-0.3636,-0.3662,-0.3708,-0.372,-0.3743,-0.3777,-0.3787,-0.3798,-0.3806,-0.3797,-0.3794,-0.3801,-0.3777,-0.3787,-0.3786,-0.3789,-0.3808,-0.3809,-0.381,-0.3801,-0.3801,-0.3801,0,0,-0.3631,-0.3617,-0.3675,-0.363,-0.3649,-0.3705,-0.3715,-0.3743,-0.3772,-0.3778,-0.3798,-0.3805,-0.3808,-0.3813,-0.3805,-0.3807,-0.3802,-0.3793,-0.3791,-0.379,-0.3792,-0.381,-0.381,-0.3802,-0.3802,-0.3802,0,0,-0.3658,-0.3705,-0.3723,-0.3673,-0.3714,-0.3759,-0.3738,-0.3784,-0.3797,-0.3791,-0.3819,-0.3821,-0.3818,-0.3819,-0.3832,-0.3804,-0.381,-0.3809,-0.3813,-0.381,-0.3808,-0.3812,-0.3832,0,0,0,0,0,-0.3763,-0.3707,-0.3723,-0.3721,-0.3726,-0.3756,-0.3759,-0.3777,-0.38,-0.3794,-0.3814,-0.3817,-0.3817,-0.3829,-0.3831,-0.382,-0.3815,-0.3813,-0.381,-0.3815,-0.3812,-0.381,0,0,0,0,0,0,-0.3762,-0.3759,-0.3726,-0.3765,-0.3768,-0.3756,-0.3775,-0.378,-0.38,-0.3801,-0.3815,-0.3817,-0.3817,-0.3828,-0.383,-0.3819,-0.3831,-0.3814,-0.3812,-0.381,-0.3814,-0.3811,-0.3809,0,0,0,0,0,-0.3763,-0.376,-0.3753,-0.3767,-0.3769,-0.3792,-0.3775,-0.3779,-0.3794,-0.3803,-0.3806,-0.3808,-0.3817,-0.3819,-0.383,-0.3817,-0.383,-0.383,-0.3813,-0.3811,-0.381,-0.3813,0,0,0,0,0,0,-0.3763,-0.3766,-0.3755,-0.3758,-0.3767,-0.3793,-0.3793,-0.3778,-0.3795,-0.3798,-0.3795,-0.3796,-0.3817,-0.3819,-0.382,-0.3816,-0.3829,-0.3829,-0.383,-0.3812,-0.381,-0.3809,0,0,0,0,0,0,-0.3768,-0.3768,-0.3756,-0.3755,-0.3758,-0.3794,-0.3794,-0.3801,-0.3794,-0.3785,-0.3787,-0.3795,-0.3813,-0.3818,-0.3819,-0.383,-0.3828,-0.3828,-0.3829,-0.3829,-0.3811,-0.381,0,0,0,0,0,0,-0.3769,-0.3769,-0.3754,-0.3757,-0.3759,-0.379,-0.38,-0.38,-0.3802,-0.3783,-0.3802,-0.3802,-0.3812,-0.3814,-0.3819,-0.3829,-0.383,-0.3828,-0.3828,-0.3829,-0.3829,0,0,0,0,0,0,0,-0.377,-0.3758,-0.3741,-0.3758,-0.376,-0.3785,-0.3785,-0.3786,-0.3802,-0.3802,-0.3802,-0.3802,-0.3824,-0.3825,-0.3825,-0.3828,0,0,-0.3828,-0.3828,0,0,0,0,0,0,0,0,-0.376,-0.3759,-0.3741,-0.3742,-0.3743,-0.3785,-0.3785,-0.3786,-0.3802,-0.3802,-0.3802,-0.3802,-0.3824,-0.3825,-0.3825,0,0,0,0,0,0,0,0,0,0,0,0,0,0,0,-0.3741,-0.3742,0,-0.3785,-0.3785,-0.3786,-0.3802,-0.3802,-0.3802,-0.3802,-0.3824,-0.3825,-0.3825,0,0,0,0,0,0,0,0,0,0,0,0,0,0,0,0,0,0,0,0,0,0,0,0,0,0,0,0,0,0,0,0,0,0,0,0,0,0,0,0,0,0,0,0,0,0,0,0,0,0,0,0,0,0,0,0,0,0,0,0,0,0,0,0,0,0,0,0,0]}],[{"header":{"parameterUnit":"kt","parameterCategory":2,"dx":1,"dy":1,"la1":30.253999710083008,"la2":30.299108505249023,"lo1":-89.0895004272461,"lo2":-89.04439544677734,"nx":28,"ny":28,"refTime":"2022-10-26T21:00:00:Z","depth":"2","parameterNumber":3,"parameterNumberName":"V-component_of_CURRENTS"},"data":[-0.1,-0.1093,-0.1149,-0.1324,-0.1412,-0.1525,-0.1575,-0.1628,-0.1594,-0.1569,-0.1436,-0.1175,-0.0618,-0.0206,0.0232,0.0529,0.0521,0.0551,0.045,0.0315,0.0303,0.0577,0.0501,0,0,0,0,0,-0.098,-0.105,-0.115,-0.1272,-0.1375,-0.1401,-0.1495,-0.1534,-0.1584,-0.1525,-0.1438,-0.1029,-0.0576,-0.0165,0.0377,0.0711,0.0696,0.0769,0.0706,0.0695,0.0687,0.0647,0.0786,0.0787,0.0788,0.0789,0,0,-0.0951,-0.1009,-0.109,-0.1184,-0.127,-0.1363,-0.1419,-0.1463,-0.15,-0.1475,-0.1347,-0.1171,-0.0762,-0.0165,0.0199,0.053,0.0508,0.0635,0.0628,0.0622,0.0582,0.0545,0.0701,0.0701,0.0702,0.0702,0.0702,0,-0.0917,-0.0949,-0.1011,-0.1114,-0.1179,-0.1256,-0.1304,-0.1337,-0.1316,-0.1306,-0.1246,-0.1143,-0.0747,-0.038,0.0069,0.0274,0.0414,0.0512,0.0448,0.0442,0.04,0.0435,0.0421,0.0538,0.0537,0.0536,0.0536,0.0535,-0.0865,-0.0907,-0.0995,-0.1044,-0.107,-0.1126,-0.1167,-0.1156,-0.1175,-0.1114,-0.1117,-0.0948,-0.0823,-0.0407,-0.0074,0.027,0.0289,0.0481,0.0494,0.0398,0.0437,0.0424,0.0411,0.0526,0.0528,0.0529,0.0529,0,-0.0836,-0.0862,-0.0935,-0.0984,-0.1001,-0.1043,-0.1077,-0.1101,-0.1056,-0.1053,-0.1038,-0.09,-0.0709,-0.0474,-0.0182,0.0001,0.0237,0.034,0.0281,0.0325,0.0406,0.0395,0.0534,0.0536,0.0538,0.054,0.0541,0,-0.079,-0.0837,-0.0874,-0.0907,-0.0972,-0.0956,-0.0999,-0.0975,-0.0943,-0.0945,-0.083,-0.0799,-0.0571,-0.0417,-0.0219,0.0036,0.0027,0.024,0.0294,0.0266,0.0267,0.024,0.0238,0.0249,0.0247,0.0246,0.0245,0,-0.0731,-0.0785,-0.0843,-0.0853,-0.0877,-0.0891,-0.0894,-0.085,-0.0844,-0.0777,-0.0765,-0.0643,-0.0578,-0.0402,-0.019,-0.0185,0.0043,0.0082,0.0248,0.0251,0.031,0.0316,0.0244,0.0244,0.0244,0.0243,0.0243,0,-0.0678,-0.0711,-0.0774,-0.0809,-0.0815,-0.0832,-0.0824,-0.0814,-0.0745,-0.0707,-0.0641,-0.0563,-0.047,-0.04,-0.0195,-0.0242,-0.0098,0.0009,0.0018,0.0097,0.0152,0.0243,0.0261,0.0137,0.0136,0.0134,0.0133,0,-0.0629,-0.0684,-0.067,-0.0721,-0.0744,-0.0697,-0.07,-0.0663,-0.0616,-0.0585,-0.0486,-0.0445,-0.037,-0.0343,-0.0269,-0.0139,-0.0066,-0.0134,0.0096,0.0103,0.0117,0.0123,0.0107,0.0236,0.0115,0.0117,0.0118,0,-0.0576,-0.0589,-0.0595,-0.0615,-0.0592,-0.059,-0.0583,-0.0554,-0.0548,-0.0485,-0.0469,-0.0381,-0.033,-0.0283,-0.021,-0.0145,-0.0091,-0.0079,-0.0072,-0.0036,0.0066,0.0095,0.011,-0.0044,-0.0043,-0.0042,0.0104,0,-0.0543,-0.055,-0.0559,-0.0552,-0.0542,-0.0547,-0.0496,-0.048,-0.0442,-0.0395,-0.035,-0.027,-0.0206,-0.0176,-0.0127,-0.0083,-0.0046,-0.0007,0.0031,0.0011,0.008,0.009,-0.0003,-0.0001,0.0001,0.0002,0,0,-0.0499,-0.0498,-0.045,-0.0463,-0.0456,-0.0391,-0.0409,-0.037,-0.0312,-0.0293,-0.027,-0.0167,-0.011,-0.0064,-0.0063,-0.0032,0.0022,-0.0022,0.0018,0.0019,0.0021,0.0084,0.0092,0.0005,0.0006,0.0007,0.0007,0,-0.0476,-0.0439,-0.045,-0.0432,-0.0396,-0.0359,-0.0365,-0.0305,-0.0274,-0.0256,-0.0187,-0.0149,-0.0086,-0.0028,0.0009,-0.0012,0.0067,0.0012,-0.0042,0.0031,0.0029,0.0029,0.009,0.0096,0.0012,0.0011,0.0011,0,-0.0438,-0.0407,-0.0398,-0.0354,-0.0317,-0.0315,-0.025,-0.0231,-0.0223,-0.0141,-0.0125,-0.0073,0.0004,0.003,0.0044,0.0066,0.0113,0.0088,0.0081,0.008,0.0158,0.0156,0.0155,0.0176,0.0176,0.0176,0,0,-0.0424,-0.0414,-0.0354,-0.0341,-0.033,-0.0264,-0.0244,-0.0207,-0.0162,-0.0144,-0.0096,-0.0039,0.0006,0.0026,0.0073,0.0089,0.0148,0.0102,0.0095,0.0088,0.0083,0.0158,0.0157,0.0176,0.0176,0.0176,0,0,-0.041,-0.035,-0.0322,-0.0304,-0.0269,-0.0193,-0.0188,-0.0153,-0.0115,-0.0109,-0.0039,-0.0025,-0.0007,0.0042,0.0032,0.0091,0.0131,0.0134,0.004,0.0031,0.0024,0.0005,0.0099,0,0,0,0,0,-0.0356,-0.0361,-0.0336,-0.0325,-0.024,-0.0206,-0.0194,-0.0136,-0.0112,-0.0115,-0.0067,-0.0025,0.0061,0.0053,0.0065,0.006,0.0174,0.0175,0.0175,0.0059,0.005,0.0042,0,0,0,0,0,0,-0.0351,-0.0338,-0.0336,-0.0262,-0.0242,-0.0205,-0.0147,-0.0131,-0.011,-0.0104,-0.0034,-0.0022,0.0031,0.0052,0.0061,0.0055,0.0096,0.0174,0.0175,0.0175,0.0056,0.0048,0.0041,0,0,0,0,0,-0.0347,-0.0336,-0.0219,-0.026,-0.0243,-0.0168,-0.0147,-0.0133,-0.0115,-0.0039,-0.0026,-0.0077,0.003,0.0041,0.0058,0.0049,0.009,0.0094,0.0174,0.0175,0.0175,0.0052,0,0,0,0,0,0,-0.0344,-0.0314,-0.0214,-0.0206,-0.026,-0.0169,-0.0154,-0.0135,-0.005,-0.0038,-0.0078,-0.0074,0.0029,0.0038,0.0046,0.0044,0.0085,0.0089,0.0091,0.0175,0.0175,0.0175,0,0,0,0,0,0,-0.032,-0.0308,-0.021,-0.0213,-0.0205,-0.0171,-0.0157,-0.0125,-0.0051,-0.0093,-0.0087,-0.0077,0.0007,0.0035,0.0042,0.0091,0.0081,0.0085,0.0087,0.0088,0.0175,0.0175,0,0,0,0,0,0,-0.0314,-0.0303,-0.0214,-0.0208,-0.0201,-0.0106,-0.0141,-0.0062,-0.0042,-0.0098,-0.0041,-0.004,0.0003,0.0012,0.0039,0.0085,0.009,0.0081,0.0084,0.0085,0.0086,0,0,0,0,0,0,0,-0.0309,-0.0395,-0.0264,-0.0204,-0.0197,-0.0135,-0.0133,-0.013,-0.0042,-0.0042,-0.0041,-0.004,0.0063,0.0066,0.007,0.008,0,0,0.0081,0.0083,0,0,0,0,0,0,0,0,-0.0398,-0.0396,-0.0264,-0.0263,-0.0261,-0.0135,-0.0133,-0.0131,-0.0042,-0.0042,-0.0041,-0.0041,0.0064,0.0067,0.007,0,0,0,0,0,0,0,0,0,0,0,0,0,0,0,-0.0264,-0.0263,0,-0.0134,-0.0133,-0.0131,-0.0042,-0.0042,-0.0041,-0.0041,0.0065,0.0067,0.0069,0,0,0,0,0,0,0,0,0,0,0,0,0,0,0,0,0,0,0,0,0,0,0,0,0,0,0,0,0,0,0,0,0,0,0,0,0,0,0,0,0,0,0,0,0,0,0,0,0,0,0,0,0,0,0,0,0,0,0,0,0,0,0,0,0,0,0,0,0]}]],[[{"header":{"parameterUnit":"kt","parameterCategory":2,"dx":1,"dy":1,"la1":30.253999710083008,"la2":30.299108505249023,"lo1":-89.0895004272461,"lo2":-89.04439544677734,"nx":28,"ny":28,"refTime":"2022-10-26T21:00:00:Z","depth":"4","parameterNumber":2,"parameterNumberName":"U-component_of_CURRENTS"},"data":[-0.1824,-0.1855,-0.1851,-0.179,-0.1781,-0.1834,-0.1895,-0.1986,-0.1946,-0.2092,-0.2079,-0.2187,-0.2179,-0.2304,-0.2168,-0.2178,-0.2226,-0.2315,-0.2308,-0.2498,-0.2524,-0.2547,-0.2528,0,0,0,0,0,-0.189,-0.1877,-0.1909,-0.1946,-0.2022,-0.2062,-0.217,-0.2238,-0.2369,-0.2273,-0.2355,-0.2329,-0.2279,-0.232,-0.2216,-0.239,-0.2459,-0.2259,-0.2412,-0.2514,-0.2543,-0.2515,0,0,0,0,0,0,-0.1978,-0.199,-0.2068,-0.2113,-0.2198,-0.2201,-0.2271,-0.2286,-0.2336,-0.2477,-0.2449,-0.2517,-0.2617,-0.2526,-0.2505,-0.2456,-0.2447,-0.2389,-0.2422,-0.245,-0.2404,-0.2308,-0.203,0,0,0,0,0,-0.2049,-0.2125,-0.2179,-0.2255,-0.2324,-0.2383,-0.2462,-0.2469,-0.2596,-0.2734,-0.2687,-0.2675,-0.2654,-0.2661,-0.2622,-0.2613,-0.2815,-0.2713,-0.2729,-0.2788,-0.2742,-0.2742,-0.2761,-0.265,-0.2654,-0.2656,-0.2658,0,-0.2143,-0.2173,-0.2323,-0.236,-0.2428,-0.2519,-0.257,-0.271,-0.2742,-0.2866,-0.2859,-0.2916,-0.2969,-0.2809,-0.2906,-0.2862,-0.2853,-0.2787,-0.285,-0.2788,-0.2779,-0.2792,-0.2803,-0.2681,-0.2679,-0.2677,-0.2675,0,-0.2189,-0.2277,-0.2346,-0.2478,-0.2525,-0.2573,-0.271,-0.2751,-0.287,-0.2927,-0.2961,-0.3074,-0.3078,-0.3143,-0.3166,-0.3097,-0.3048,-0.2979,-0.3202,-0.3198,-0.2843,-0.2845,-0.2718,-0.271,-0.2703,-0.2697,-0.2692,0,-0.2276,-0.2325,-0.2453,-0.2484,-0.2552,-0.2652,-0.2734,-0.2817,-0.2926,-0.2971,-0.3097,-0.3124,-0.3241,-0.3256,-0.3271,-0.3164,-0.328,-0.3089,-0.3064,-0.3324,-0.3324,-0.331,-0.3308,-0.3329,-0.3329,-0.333,-0.333,0,-0.2327,-0.2421,-0.2474,-0.2514,-0.2639,-0.2694,-0.2764,-0.2886,-0.2946,-0.3061,-0.3109,-0.3197,-0.324,-0.3269,-0.3292,-0.3317,-0.3298,-0.3336,-0.312,-0.3104,-0.3313,-0.331,-0.3331,-0.3331,-0.3332,-0.3332,-0.3332,0,-0.2402,-0.2444,-0.2506,-0.2611,-0.2635,-0.2696,-0.2814,-0.2883,-0.3001,-0.3066,-0.3149,-0.3209,-0.3271,-0.3291,-0.3329,-0.3339,-0.333,-0.3335,-0.3332,-0.3117,-0.3096,-0.3224,-0.328,-0.328,-0.328,-0.328,-0.328,0,-0.2434,-0.2483,-0.2539,-0.2612,-0.2647,-0.2743,-0.2813,-0.2902,-0.2989,-0.3068,-0.3142,-0.3217,-0.325,-0.3286,-0.3316,-0.3338,-0.3336,-0.3351,-0.3316,-0.3313,-0.3089,-0.3089,-0.3369,-0.3283,-0.3283,-0.3282,-0.3282,0,-0.2449,-0.2543,-0.2553,-0.2584,-0.2681,-0.2717,-0.2808,-0.2884,-0.293,-0.3046,-0.3094,-0.3206,-0.3239,-0.3268,-0.3301,-0.3323,-0.3334,-0.3322,-0.3322,-0.3251,-0.3332,-0.3118,-0.3095,-0.3366,-0.3367,-0.3367,-0.3284,0,-0.2486,-0.254,-0.2563,-0.2604,-0.2656,-0.2708,-0.2771,-0.2849,-0.2912,-0.2951,-0.3062,-0.314,-0.3208,-0.3242,-0.3256,-0.3307,-0.328,-0.3299,-0.3253,-0.3311,-0.3267,-0.3266,-0.3271,-0.327,-0.327,-0.3269,0,0,-0.2477,-0.2509,-0.255,-0.2575,-0.2609,-0.2664,-0.2694,-0.2748,-0.2844,-0.2882,-0.2915,-0.3054,-0.3108,-0.3171,-0.3206,-0.3247,-0.3234,-0.3221,-0.3298,-0.3301,-0.3304,-0.3265,-0.3264,-0.3268,-0.3268,-0.3268,-0.3268,0,-0.2452,-0.2516,-0.2531,-0.2569,-0.2617,-0.2638,-0.2663,-0.2715,-0.2759,-0.2862,-0.2882,-0.2965,-0.3079,-0.3107,-0.3131,-0.3235,-0.3195,-0.3262,-0.3274,-0.3293,-0.3297,-0.33,-0.3262,-0.3262,-0.3266,-0.3267,-0.3267,0,-0.2425,-0.2444,-0.2467,-0.2523,-0.2546,-0.2579,-0.2574,-0.2634,-0.2673,-0.2706,-0.2814,-0.2868,-0.2919,-0.3016,-0.3068,-0.305,-0.3151,-0.3151,-0.3156,-0.3136,-0.3152,-0.3158,-0.3163,-0.3086,-0.3085,-0.3084,0,0,-0.2398,-0.2433,-0.246,-0.2514,-0.2533,-0.2553,-0.2582,-0.2604,-0.2659,-0.2694,-0.2757,-0.2826,-0.2884,-0.2937,-0.3001,-0.3095,-0.3072,-0.3127,-0.3136,-0.3142,-0.3126,-0.3144,-0.3151,-0.3081,-0.3081,-0.3081,0,0,-0.2378,-0.2402,-0.2411,-0.2475,-0.2509,-0.2523,-0.2566,-0.2576,-0.2657,-0.2678,-0.2711,-0.2734,-0.2849,-0.2878,-0.2834,-0.2977,-0.2945,-0.2956,-0.2948,-0.2959,-0.2968,-0.2927,-0.2802,0,0,0,0,0,-0.234,-0.2392,-0.24,-0.2412,-0.2471,-0.2513,-0.2522,-0.2552,-0.2553,-0.2596,-0.2665,-0.2656,-0.2864,-0.2825,-0.2844,-0.2877,-0.304,-0.3047,-0.3054,-0.3067,-0.3078,-0.3088,0,0,0,0,0,0,-0.2344,-0.2358,-0.2398,-0.2411,-0.2425,-0.2511,-0.2491,-0.25,-0.2551,-0.2556,-0.2642,-0.2657,-0.2678,-0.2816,-0.2833,-0.2863,-0.2796,-0.3043,-0.3049,-0.3055,-0.3071,-0.308,-0.3088,0,0,0,0,0,-0.2348,-0.2359,-0.2451,-0.241,-0.2422,-0.2467,-0.2491,-0.2499,-0.2549,-0.2596,-0.2612,-0.2577,-0.2676,-0.2696,-0.2826,-0.2855,-0.2784,-0.2791,-0.3047,-0.3052,-0.3056,-0.3075,0,0,0,0,0,0,-0.2351,-0.2361,-0.2454,-0.2458,-0.2414,-0.2465,-0.2475,-0.2498,-0.2588,-0.2602,-0.253,-0.2533,-0.2675,-0.2691,-0.2706,-0.2851,-0.2775,-0.2781,-0.2785,-0.3051,-0.3054,-0.3058,0,0,0,0,0,0,-0.2356,-0.2365,-0.2456,-0.2459,-0.2464,-0.2463,-0.2472,-0.2536,-0.2592,-0.2519,-0.2523,-0.2531,-0.2677,-0.2687,-0.2699,-0.2794,-0.2768,-0.2774,-0.2778,-0.2781,-0.3054,-0.3057,0,0,0,0,0,0,-0.236,-0.2368,-0.2458,-0.2462,-0.2466,-0.2515,-0.2523,-0.2598,-0.2547,-0.2516,-0.2548,-0.2549,-0.2674,-0.2685,-0.2694,-0.2784,-0.2792,-0.2768,-0.2772,-0.2775,-0.2777,0,0,0,0,0,0,0,-0.2363,-0.2307,-0.243,-0.2464,-0.2468,-0.2497,-0.2498,-0.2499,-0.2547,-0.2547,-0.2548,-0.2549,-0.2733,-0.274,-0.2746,-0.2775,0,0,-0.2767,-0.277,0,0,0,0,0,0,0,0,-0.2304,-0.2306,-0.243,-0.2431,-0.2432,-0.2497,-0.2498,-0.2499,-0.2547,-0.2547,-0.2548,-0.2548,-0.2735,-0.274,-0.2746,0,0,0,0,0,0,0,0,0,0,0,0,0,0,0,-0.243,-0.2431,0,-0.2497,-0.2498,-0.2499,-0.2547,-0.2547,-0.2548,-0.2548,-0.2736,-0.2741,-0.2745,0,0,0,0,0,0,0,0,0,0,0,0,0,0,0,0,0,0,0,0,0,0,0,0,0,0,0,0,0,0,0,0,0,0,0,0,0,0,0,0,0,0,0,0,0,0,0,0,0,0,0,0,0,0,0,0,0,0,0,0,0,0,0,0,0,0,0,0,0]}],[{"header":{"parameterUnit":"kt","parameterCategory":2,"dx":1,"dy":1,"la1":30.253999710083008,"la2":30.299108505249023,"lo1":-89.0895004272461,"lo2":-89.04439544677734,"nx":28,"ny":28,"refTime":"2022-10-26T21:00:00:Z","depth":"4","parameterNumber":3,"parameterNumberName":"V-component_of_CURRENTS"},"data":[-0.0655,-0.0747,-0.08,-0.0937,-0.1017,-0.1131,-0.1179,-0.1185,-0.1146,-0.1119,-0.0952,-0.0848,-0.0537,-0.0729,-0.0219,-0.0151,-0.0025,0.0276,0.0282,0.0446,0.0442,0.0437,0.0369,0,0,0,0,0,-0.0638,-0.0702,-0.0802,-0.0918,-0.1023,-0.1078,-0.1154,-0.117,-0.1175,-0.1131,-0.109,-0.092,-0.0588,-0.0459,-0.0223,-0.0166,0.0143,0.0122,0.0257,0.0443,0.0438,0.0373,0,0,0,0,0,0,-0.0622,-0.0677,-0.0765,-0.0861,-0.0967,-0.1053,-0.1087,-0.1107,-0.1124,-0.1084,-0.1065,-0.0875,-0.0765,-0.0429,-0.0207,0.0023,0.0105,0.0201,0.0209,0.0207,0.0121,0.0051,0.0105,0,0,0,0,0,-0.0597,-0.0638,-0.0701,-0.0816,-0.0893,-0.0978,-0.1041,-0.1068,-0.1073,-0.1066,-0.1001,-0.0835,-0.0658,-0.0406,-0.0156,0.0082,0.0226,0.0323,0.0323,0.0346,0.0315,0.0351,0.0341,0.0418,0.0417,0.0417,0.0416,0,-0.0564,-0.0603,-0.0706,-0.0762,-0.0796,-0.0867,-0.0918,-0.0929,-0.0956,-0.0941,-0.0951,-0.0831,-0.0738,-0.0407,-0.0189,0.0132,0.0203,0.0308,0.0331,0.0306,0.0345,0.0336,0.0328,0.0412,0.0413,0.0413,0.0413,0,-0.0546,-0.0577,-0.065,-0.0712,-0.0737,-0.0786,-0.0845,-0.0879,-0.086,-0.0882,-0.0877,-0.0781,-0.0629,-0.0435,-0.0194,-0.0042,0.0156,0.0248,0.0131,0.0172,0.0324,0.0318,0.0405,0.0407,0.0408,0.0409,0.041,0,-0.0516,-0.0564,-0.0611,-0.0641,-0.0715,-0.0709,-0.0769,-0.0759,-0.0754,-0.0773,-0.0687,-0.0677,-0.0494,-0.0375,-0.02,0.0008,-0.0002,0.0189,0.0238,0.0159,0.0155,0.0211,0.0211,0.0198,0.0197,0.0196,0.0196,0,-0.0469,-0.0525,-0.0581,-0.0594,-0.0626,-0.065,-0.0663,-0.0645,-0.0652,-0.0618,-0.062,-0.0532,-0.0489,-0.0343,-0.0163,-0.0151,0.0019,0.0065,0.0207,0.0211,0.0206,0.0208,0.0195,0.0195,0.0194,0.0194,0.0194,0,-0.0425,-0.0457,-0.0519,-0.0557,-0.0565,-0.0591,-0.0602,-0.0605,-0.0567,-0.0542,-0.05,-0.044,-0.0376,-0.0306,-0.0148,-0.0182,-0.0054,0.0036,0.0043,0.0101,0.0163,0.0188,0.0153,0.0152,0.0151,0.015,0.0149,0,-0.0379,-0.0432,-0.042,-0.0475,-0.0496,-0.0461,-0.0478,-0.0456,-0.0426,-0.0415,-0.0339,-0.032,-0.0248,-0.0231,-0.0174,-0.007,-0.0011,-0.0058,0.0127,0.0132,0.0153,0.0128,0.002,0.0136,0.0138,0.0139,0.014,0,-0.0327,-0.0339,-0.0346,-0.0359,-0.0345,-0.0351,-0.0361,-0.0344,-0.0345,-0.0304,-0.0301,-0.0247,-0.0201,-0.017,-0.0106,-0.0058,-0.0024,0.0003,0.0008,0.0048,0.0092,0.0111,0.0121,0.0017,0.0017,0.0018,0.0131,0,-0.0263,-0.0284,-0.0303,-0.0293,-0.0293,-0.0308,-0.0264,-0.026,-0.0225,-0.0187,-0.017,-0.0111,-0.007,-0.005,-0.0007,0.001,0.0045,0.0082,0.013,0.009,0.0146,0.0153,0.0105,0.0107,0.0109,0.011,0,0,-0.0206,-0.022,-0.0182,-0.0196,-0.0194,-0.0131,-0.0151,-0.0126,-0.0083,-0.007,-0.0048,0.0011,0.0056,0.0076,0.0064,0.0086,0.0128,0.0098,0.0104,0.0102,0.0102,0.0152,0.0157,0.0113,0.0114,0.0114,0.0115,0,-0.0163,-0.0155,-0.0174,-0.016,-0.013,-0.0099,-0.0101,-0.0053,-0.003,-0.0028,0.0035,0.0057,0.0089,0.0128,0.0154,0.0106,0.018,0.0117,0.0062,0.0115,0.0112,0.0109,0.0158,0.0161,0.0118,0.0118,0.0118,0,-0.0098,-0.0076,-0.008,-0.0061,-0.0035,-0.0038,0.003,0.0033,0.0036,0.0113,0.0112,0.0149,0.0202,0.0199,0.0203,0.0228,0.0234,0.0222,0.0214,0.021,0.0268,0.0263,0.0259,0.0315,0.0315,0.0315,0,0,-0.0063,-0.0071,-0.0022,-0.0045,-0.0036,0.0022,0.0032,0.0065,0.0098,0.011,0.0148,0.0187,0.0212,0.0225,0.0246,0.0243,0.0291,0.0242,0.0233,0.0225,0.0216,0.0271,0.0266,0.0316,0.0316,0.0316,0,0,-0.004,0.0006,0.0033,0.0007,0.0034,0.0091,0.0077,0.0119,0.014,0.0146,0.0209,0.0219,0.0217,0.0253,0.0261,0.0267,0.031,0.0309,0.0236,0.0225,0.0216,0.0199,0.0324,0,0,0,0,0,0.004,0.0001,0.0025,0.0028,0.0065,0.0079,0.0086,0.013,0.0165,0.015,0.0189,0.0232,0.0269,0.0277,0.0285,0.027,0.0331,0.0328,0.0326,0.0231,0.0219,0.0209,0,0,0,0,0,0,0.0042,0.0045,0.0027,0.0079,0.0088,0.0081,0.014,0.0151,0.0167,0.0173,0.0224,0.0233,0.0272,0.0277,0.0283,0.0268,0.0322,0.033,0.0328,0.0326,0.0227,0.0218,0.0209,0,0,0,0,0,0.0044,0.0046,0.0088,0.0081,0.0089,0.0142,0.014,0.0151,0.0163,0.0219,0.0229,0.0195,0.027,0.0278,0.0281,0.0264,0.0318,0.032,0.0328,0.0327,0.0325,0.0223,0,0,0,0,0,0,0.0045,0.006,0.0091,0.0096,0.0089,0.0143,0.0151,0.015,0.0209,0.0219,0.0193,0.0197,0.0269,0.0276,0.0281,0.0259,0.0315,0.0317,0.0318,0.0327,0.0326,0.0324,0,0,0,0,0,0,0.0059,0.0063,0.0093,0.0101,0.0108,0.0144,0.0151,0.0168,0.0209,0.018,0.0185,0.0194,0.0261,0.0273,0.0278,0.0303,0.0313,0.0315,0.0316,0.0317,0.0326,0.0325,0,0,0,0,0,0,0.0062,0.0066,0.0101,0.0105,0.0111,0.017,0.0161,0.0195,0.0214,0.0176,0.0218,0.0219,0.0258,0.0264,0.0276,0.0299,0.0302,0.0313,0.0314,0.0315,0.0316,0,0,0,0,0,0,0,0.0065,0.0023,0.0061,0.0108,0.0113,0.0142,0.0143,0.0145,0.0215,0.0216,0.0217,0.0218,0.0301,0.0304,0.0306,0.0295,0,0,0.0313,0.0314,0,0,0,0,0,0,0,0,0.0023,0.0023,0.0062,0.0063,0.0064,0.0142,0.0143,0.0144,0.0215,0.0216,0.0217,0.0218,0.0302,0.0304,0.0305,0,0,0,0,0,0,0,0,0,0,0,0,0,0,0,0.0062,0.0063,0,0.0142,0.0143,0.0144,0.0215,0.0216,0.0217,0.0217,0.0302,0.0304,0.0305,0,0,0,0,0,0,0,0,0,0,0,0,0,0,0,0,0,0,0,0,0,0,0,0,0,0,0,0,0,0,0,0,0,0,0,0,0,0,0,0,0,0,0,0,0,0,0,0,0,0,0,0,0,0,0,0,0,0,0,0,0,0,0,0,0,0,0,0,0]}]]]